Weather History for Rush City, MN

Change the Weather History Date:

Saturday, March 9, 2013

  Actual Average (KCBG) Record (KCBG)
Temperature  
Mean Temperature 32 °F -  
Max Temperature 35 °F 36 °F 52 °F (1977)
Min Temperature 30 °F 14 °F -14 °F (1951)
Degree Days  
Heating Degree Days 32    
Moisture  
Dew Point 32 °F    
Average Humidity 92    
Maximum Humidity 96    
Minimum Humidity 76    
Precipitation  
Precipitation 0.52 in - - ()
Sea Level Pressure  
Sea Level Pressure 29.85 in    
Wind  
Wind Speed 6 mph (SE)    
Max Wind Speed 12 mph    
Max Gust Speed -    
Visibility 6 miles    
Events Rain    
Averages and records for this station are not official NWS values.
T = Trace of Precipitation, MM = Missing Value Source: NWS Daily Summary

Daily Weather History Graph

Daily Weather History Graph

Search for Another Location

Airport:

Trip Planner

Search our weather history database for the weather conditions in past years. The results will help you decide how hot, cold, wet, or windy it might be!

Date:

Astronomy

Mar. 09, 2013 Rise Set
Actual Time 6:35 AM CST 6:10 PM CST
Civil Twilight 6:05 AM CST 6:39 PM CST
Nautical Twilight 5:31 AM CST 7:14 PM CST
Astronomical Twilight 4:56 AM CST 7:49 PM CST
Moon 5:04 AM CST (3/9) 4:08 PM CST (3/9)
Length of Visible Light 12h 34m
Length of Day
11h 34m
Waning Crescent, 5% of the Moon is Illuminated
Mar 9
Waning Crescent
Mar 11
New
Mar 19
First Quarter
Mar 27
Full
Apr 2
Last Quarter

Hourly Weather History & Observations

Time (CST) Temp. Windchill Dew Point Humidity Pressure Visibility Wind Dir Wind Speed Gust Speed Precip Events Conditions
12:15 AM 30.6 °F 27.1 °F 25.3 °F 81% 30.08 in 10.0 mi ESE 3.5 mph - N/A   Clear
12:35 AM 31.6 °F 26.0 °F 25.9 °F 79% 30.08 in 10.0 mi SE 5.8 mph - N/A   Scattered Clouds
12:55 AM 32.0 °F 25.6 °F 26.1 °F 79% 30.08 in 10.0 mi SE 6.9 mph - N/A   Mostly Cloudy
1:15 AM 32.9 °F 26.7 °F 26.2 °F 76% 30.08 in 10.0 mi SSE 6.9 mph - N/A   Overcast
1:35 AM 33.1 °F 26.9 °F 26.4 °F 77% 30.07 in 10.0 mi SE 6.9 mph - N/A   Overcast
1:55 AM 33.1 °F 26.1 °F 26.4 °F 77% 30.06 in 10.0 mi SE 8.1 mph - N/A   Overcast
2:15 AM 33.3 °F 25.1 °F 26.4 °F 76% 30.05 in 10.0 mi SE 10.4 mph - N/A   Overcast
2:35 AM 33.3 °F 26.4 °F 26.4 °F 76% 30.04 in 10.0 mi SE 8.1 mph - N/A   Overcast
2:55 AM 33.4 °F 25.9 °F 26.6 °F 76% 30.03 in 10.0 mi SE 9.2 mph - N/A   Overcast
3:15 AM 33.4 °F 27.3 °F 26.6 °F 76% 30.02 in 10.0 mi SE 6.9 mph - N/A   Overcast
3:35 AM 33.3 °F 25.7 °F 27.3 °F 79% 30.00 in 10.0 mi SE 9.2 mph - N/A   Overcast
3:55 AM 32.9 °F 25.9 °F 28.2 °F 83% 30.00 in 10.0 mi SE 8.1 mph - 0.01 in   Overcast
4:15 AM 32.4 °F 24.6 °F 29.1 °F 88% 29.99 in 10.0 mi SE 9.2 mph - 0.02 in Rain Light Rain
4:35 AM 32.0 °F 24.8 °F 29.7 °F 91% 29.98 in 10.0 mi SE 8.1 mph - 0.05 in Rain Light Rain
4:55 AM 32.0 °F 24.8 °F 30.0 °F 92% 29.97 in 10.0 mi SE 8.1 mph - 0.08 in Rain Light Rain
5:15 AM 32.0 °F 25.6 °F 30.2 °F 93% 29.95 in 7.0 mi ESE 6.9 mph - 0.01 in Rain Light Rain
5:35 AM 32.0 °F 24.8 °F 30.6 °F 94% 29.94 in 7.0 mi ESE 8.1 mph - 0.06 in Rain Light Rain
5:55 AM 32.2 °F 25.8 °F 30.9 °F 95% 29.94 in 7.0 mi SE 6.9 mph - 0.09 in Rain Light Rain
6:15 AM 32.4 °F 24.6 °F 31.1 °F 95% 29.94 in 7.0 mi SE 9.2 mph - 0.04 in Rain Light Rain
6:35 AM 32.9 °F 25.9 °F 31.5 °F 94% 29.94 in 10.0 mi SE 8.1 mph - 0.06 in Rain Light Rain
6:55 AM 32.9 °F 28.5 °F 31.6 °F 95% 29.94 in 7.0 mi SE 4.6 mph - 0.09 in Rain Light Rain
7:15 AM 32.9 °F 27.5 °F 31.6 °F 95% 29.92 in 5.0 mi SE 5.8 mph - 0.01 in Rain Light Rain
7:35 AM 32.9 °F 27.5 °F 31.6 °F 95% 29.91 in 5.0 mi ESE 5.8 mph - 0.03 in Rain Light Rain
7:55 AM 32.9 °F 27.5 °F 31.8 °F 96% 29.91 in 5.0 mi ESE 5.8 mph - 0.04 in   Overcast
8:15 AM 33.1 °F 26.9 °F 32.0 °F 96% 29.89 in 5.0 mi ESE 6.9 mph - N/A   Overcast
8:35 AM 33.3 °F 27.9 °F 32.0 °F 95% 29.89 in 7.0 mi ESE 5.8 mph - 0.02 in   Overcast
8:55 AM 33.3 °F 26.4 °F 32.0 °F 95% 29.88 in 5.0 mi SE 8.1 mph - 0.02 in   Overcast
9:15 AM 33.4 °F 25.9 °F 32.0 °F 94% 29.87 in 4.0 mi SE 9.2 mph - N/A   Overcast
9:35 AM 33.6 °F 26.8 °F 32.0 °F 94% 29.86 in 4.0 mi SE 8.1 mph - N/A   Overcast
9:55 AM 33.8 °F 27.0 °F 32.4 °F 94% 29.85 in 4.0 mi SE 8.1 mph - N/A   Overcast
10:15 AM 34.0 °F 27.2 °F 32.5 °F 94% 29.85 in 4.0 mi SSE 8.1 mph - N/A   Overcast
10:35 AM 34.0 °F 26.6 °F 32.5 °F 94% 29.84 in 4.0 mi SE 9.2 mph - N/A   Overcast
10:55 AM 34.2 °F 25.7 °F 32.9 °F 95% 29.84 in 4.0 mi SSE 11.5 mph - N/A   Overcast
11:15 AM 34.2 °F 27.5 °F 32.9 °F 95% 29.84 in 4.0 mi SSE 8.1 mph - N/A   Overcast
11:35 AM 34.2 °F 26.8 °F 32.9 °F 95% 29.82 in 4.0 mi SE 9.2 mph - N/A   Overcast
11:55 AM 34.3 °F 27.0 °F 32.9 °F 94% 29.82 in 4.0 mi SE 9.2 mph - N/A   Overcast
12:15 PM 34.7 °F 28.1 °F 33.1 °F 94% 29.81 in 4.0 mi SSE 8.1 mph - N/A   Overcast
12:35 PM 34.7 °F 28.1 °F 33.3 °F 94% 29.80 in 4.0 mi SE 8.1 mph - N/A   Overcast
12:55 PM 34.9 °F 28.3 °F 33.4 °F 94% 29.78 in 4.0 mi SE 8.1 mph - N/A   Overcast
1:15 PM 34.7 °F 28.8 °F 33.3 °F 94% 29.78 in 5.0 mi SSE 6.9 mph - N/A Rain Light Rain
1:35 PM 34.7 °F 28.8 °F 33.3 °F 94% 29.78 in 5.0 mi SE 6.9 mph - 0.02 in Rain Light Rain
1:55 PM 34.7 °F 29.6 °F 33.3 °F 94% 29.76 in 7.0 mi SE 5.8 mph - 0.05 in Rain Light Rain
2:15 PM 35.1 °F 30.1 °F 33.8 °F 95% 29.74 in 7.0 mi ESE 5.8 mph - 0.02 in Rain Light Rain
2:35 PM 35.1 °F 31.0 °F 33.8 °F 95% 29.75 in 7.0 mi SE 4.6 mph - 0.04 in Rain Light Rain
2:55 PM 35.4 °F 30.5 °F 33.8 °F 94% 29.73 in 5.0 mi ESE 5.8 mph - 0.04 in   Overcast
3:15 PM 35.4 °F 31.5 °F 34.0 °F 94% 29.73 in 5.0 mi ESE 4.6 mph - N/A   Overcast
3:35 PM 35.6 °F 31.7 °F 34.0 °F 94% 29.73 in 4.0 mi ESE 4.6 mph - 0.01 in   Overcast
3:55 PM 35.1 °F 29.3 °F 33.8 °F 95% 29.74 in 4.0 mi SE 6.9 mph - 0.01 in   Overcast
4:15 PM 35.1 °F 31.0 °F 33.8 °F 95% 29.73 in 4.0 mi ESE 4.6 mph - N/A   Overcast
4:35 PM 34.9 °F 30.8 °F 33.6 °F 95% 29.73 in 4.0 mi ESE 4.6 mph - 0.02 in   Overcast
4:55 PM 34.9 °F 30.8 °F 33.8 °F 96% 29.72 in 4.0 mi ESE 4.6 mph - 0.02 in   Overcast
5:15 PM 34.9 °F 30.8 °F 33.8 °F 96% 29.70 in 5.0 mi East 4.6 mph - 0.03 in Rain Light Rain
5:35 PM 34.7 °F 31.8 °F 33.6 °F 96% 29.72 in 7.0 mi ESE 3.5 mph - 0.04 in   Overcast
5:55 PM 34.7 °F - 33.4 °F 95% 29.73 in 10.0 mi Calm Calm - 0.04 in   Overcast
6:15 PM 34.7 °F 31.8 °F 33.3 °F 94% 29.72 in 10.0 mi East 3.5 mph - N/A   Overcast
6:35 PM 34.7 °F - 33.3 °F 94% 29.73 in 7.0 mi Calm Calm - N/A   Overcast
6:54 PM 34.5 °F - 33.1 °F 94% 29.73 in 5.0 mi Calm Calm - 0.02 in   Overcast
7:15 PM 34.2 °F - 32.9 °F 95% 29.73 in 2.5 mi Calm Calm - N/A   Overcast
7:35 PM 34.0 °F - 32.9 °F 96% 29.73 in 2.5 mi Calm Calm - N/A Rain Light Rain
7:55 PM 34.0 °F - 32.9 °F 96% 29.74 in 2.5 mi Calm Calm - N/A   Overcast
8:15 PM 33.8 °F - 32.9 °F 96% 29.74 in 1.8 mi Calm Calm - N/A   Overcast
8:35 PM 33.8 °F - 32.5 °F 95% 29.74 in 1.8 mi Calm Calm - N/A Rain Light Rain
8:55 PM 33.8 °F - 32.5 °F 95% 29.74 in 2.0 mi Calm Calm - N/A   Overcast
9:15 PM 33.8 °F - 32.7 °F 96% 29.75 in 2.0 mi Calm Calm - 0.01 in   Overcast
9:35 PM 33.3 °F - 32.2 °F 96% 29.76 in 2.5 mi Calm Calm - 0.01 in   Overcast
9:55 PM 33.8 °F 30.8 °F 32.5 °F 95% 29.76 in 3.0 mi North 3.5 mph - 0.01 in   Overcast
10:15 PM 33.4 °F 28.1 °F 32.5 °F 96% 29.75 in 3.0 mi NNW 5.8 mph - N/A   Overcast
10:35 PM 33.4 °F 29.1 °F 32.5 °F 96% 29.77 in 5.0 mi NW 4.6 mph - N/A   Overcast
10:55 PM 33.3 °F 28.9 °F 32.4 °F 96% 29.78 in 5.0 mi NNW 4.6 mph - N/A   Overcast
11:15 PM 33.1 °F 28.7 °F 32.2 °F 96% 29.78 in 5.0 mi NNW 4.6 mph - N/A   Overcast
11:35 PM 33.1 °F 30.0 °F 32.2 °F 96% 29.78 in 7.0 mi NNW 3.5 mph - N/A   Overcast
11:55 PM 32.9 °F 29.8 °F 32.0 °F 96% 29.80 in 10.0 mi NW 3.5 mph - N/A   Overcast